[[{"header":{"parameterUnit":"m.s-1","parameterCategory":1,"la1":30.2991,"la2":30.254,"lo1":-89.0895,"lo2":-89.0444,"dy":0.0017,"dx":0.0017,"nx":28,"ny":28,"refTime":"2024-06-17T09:00:00:Z","depth":0,"parameterNumber":2,"parameterNumberName":"U-component_of_WINDS"},"data":[0,0,0,0,0,0,0,0,0,0,0,0,0,0,0,0,0,0,0,0,0,0,0,0,0,0,0,0,0,0,0,0,0,0,0,0,0,0,0,0,0,0,0,0,0,0,0,0,0,0,0,0,0,0,0,0,0,0,-3.7041,-3.7043,0,-3.7226,-3.7228,-3.723,-3.7226,-3.7223,-3.7221,-3.7219,-3.7409,-3.7416,-3.7424,0,0,0,0,0,0,0,0,0,0,0,0,0,-3.6686,-3.6693,-3.7041,-3.7044,-3.7046,-3.7226,-3.7228,-3.7231,-3.7226,-3.7223,-3.722,-3.7217,-3.7407,-3.7415,-3.7424,0,0,0,0,0,0,0,0,0,0,0,0,0,-3.6853,-3.6695,-3.7041,-3.7065,-3.7069,-3.7225,-3.7228,-3.7231,-3.7227,-3.7223,-3.7219,-3.7216,-3.7404,-3.7415,-3.7426,-3.757,0,0,-3.746,-3.7464,0,0,0,0,0,0,0,0,-3.6843,-3.6866,-3.7059,-3.7064,-3.7069,-3.7199,-3.7173,-3.7345,-3.7228,-3.7167,-3.7218,-3.7214,-3.7342,-3.7358,-3.7401,-3.7579,-3.7587,-3.7461,-3.7467,-3.7472,-3.7475,0,0,0,0,0,0,0,-3.6832,-3.6858,-3.7114,-3.7062,-3.7068,-3.7068,-3.7087,-3.7206,-3.7274,-3.7172,-3.7172,-3.7194,-3.7344,-3.7391,-3.7406,-3.759,-3.746,-3.747,-3.7477,-3.7481,-3.7894,-3.7898,0,0,0,0,0,0,-3.6815,-3.6848,-3.7109,-3.712,-3.6944,-3.7077,-3.7099,-3.7161,-3.7272,-3.7286,-3.7197,-3.7193,-3.7373,-3.7393,-3.7412,-3.7588,-3.7472,-3.7482,-3.7489,-3.789,-3.7895,-3.79,0,0,0,0,0,0,-3.6807,-3.6838,-3.7101,-3.6984,-3.7018,-3.7087,-3.7157,-3.7167,-3.7213,-3.7291,-3.7304,-3.7232,-3.7371,-3.7397,-3.753,-3.7594,-3.7487,-3.7498,-3.7885,-3.7891,-3.7897,-3.7939,0,0,0,0,0,0,-3.6797,-3.6835,-3.689,-3.6985,-3.7024,-3.7216,-3.7161,-3.7173,-3.7232,-3.7229,-3.7327,-3.734,-3.737,-3.7514,-3.7541,-3.7608,-3.7506,-3.7879,-3.7888,-3.7895,-3.7933,-3.7946,-3.7958,0,0,0,0,0,-3.6784,-3.6895,-3.6893,-3.6925,-3.7094,-3.7219,-3.7241,-3.7273,-3.7237,-3.7293,-3.7344,-3.7337,-3.7583,-3.7528,-3.7559,-3.7629,-3.7875,-3.7885,-3.7895,-3.7927,-3.7944,-3.7958,0,0,0,0,0,0,-3.6807,-3.6908,-3.6907,-3.7052,-3.7127,-3.7218,-3.729,-3.7291,-3.7378,-3.7371,-3.7408,-3.743,-3.7564,-3.761,-3.7546,-3.7774,-3.7725,-3.7741,-3.7738,-3.7755,-3.7768,-3.7753,-3.7516,0,0,0,0,0,-3.6828,-3.6921,-3.7005,-3.7125,-3.7163,-3.722,-3.7276,-3.7294,-3.7373,-3.7405,-3.7465,-3.7543,-3.7638,-3.7699,-3.7791,-3.794,-3.7961,-3.8004,-3.8017,-3.8027,-3.804,-3.8121,-3.8141,-3.7931,-3.7931,-3.7931,0,0,-3.6874,-3.6941,-3.6998,-3.7131,-3.7191,-3.7286,-3.7247,-3.7349,-3.742,-3.7421,-3.755,-3.7597,-3.7686,-3.7828,-3.7893,-3.7871,-3.8103,-3.8039,-3.8047,-3.8055,-3.8133,-3.8153,-3.8171,-3.7938,-3.7937,-3.7936,0,0,-3.7006,-3.7067,-3.7172,-3.7234,-3.7325,-3.7362,-3.7388,-3.748,-3.751,-3.7641,-3.7643,-3.7729,-3.7892,-3.7955,-3.8008,-3.8164,-3.8161,-3.8194,-3.826,-3.8339,-3.8356,-3.837,-3.8425,-3.8444,-3.8207,-3.8207,-3.8207,0,-3.7052,-3.7195,-3.7227,-3.733,-3.7388,-3.7393,-3.7501,-3.7559,-3.7676,-3.7716,-3.7689,-3.7893,-3.7954,-3.811,-3.8148,-3.8192,-3.8222,-3.8181,-3.8351,-3.8366,-3.838,-3.8432,-3.8453,-3.821,-3.821,-3.8209,-3.8209,0,-3.7245,-3.7345,-3.7419,-3.7531,-3.7598,-3.7703,-3.7752,-3.7816,-3.7829,-3.7869,-3.8002,-3.8075,-3.8181,-3.822,-3.8234,-3.8378,-3.8361,-3.8342,-3.8293,-3.8403,-3.8452,-3.8473,-3.8215,-3.8214,-3.8213,-3.8212,0,0,-3.7395,-3.7524,-3.755,-3.7601,-3.7702,-3.778,-3.7885,-3.7989,-3.8042,-3.8124,-3.8212,-3.835,-3.8333,-3.8394,-3.8415,-3.8485,-3.8603,-3.8457,-3.846,-3.8481,-3.8765,-3.8777,-3.88,-3.8602,-3.8606,-3.8609,-3.8757,0,-3.7537,-3.7722,-3.7755,-3.7917,-3.8009,-3.8015,-3.8107,-3.8179,-3.822,-3.8304,-3.835,-3.8446,-3.8417,-3.8454,-3.8523,-3.8574,-3.866,-3.8564,-3.8685,-3.8688,-3.866,-3.8827,-3.884,-3.8976,-3.8777,-3.878,-3.8783,0,-3.7726,-3.7811,-3.7982,-3.807,-3.811,-3.8192,-3.8289,-3.8369,-3.8452,-3.8477,-3.8545,-3.8558,-3.8668,-3.8615,-3.8767,-3.87,-3.8752,-3.8785,-3.8791,-3.8802,-3.8741,-3.8841,-3.9021,-3.904,-3.8814,-3.8812,-3.8809,0,-3.7816,-3.7974,-3.8096,-3.8139,-3.8246,-3.8303,-3.835,-3.8429,-3.8489,-3.8574,-3.8613,-3.8711,-3.8764,-3.8839,-3.8879,-3.8837,-3.9028,-3.8978,-3.9051,-3.905,-3.9089,-3.9086,-3.9278,-3.9126,-3.9125,-3.9125,-3.9124,0,-3.797,-3.8074,-3.8138,-3.8213,-3.833,-3.8367,-3.8482,-3.8528,-3.8598,-3.8683,-3.8695,-3.8774,-3.8822,-3.8909,-3.8941,-3.9061,-3.9086,-3.9109,-3.9116,-3.9107,-3.9104,-3.914,-3.9131,-3.913,-3.9129,-3.9128,-3.9127,0,-3.809,-3.8137,-3.8271,-3.8361,-3.8386,-3.8468,-3.8545,-3.8619,-3.8659,-3.8766,-3.8794,-3.8858,-3.896,-3.9008,-3.9135,-3.9156,-3.9293,-3.9294,-3.9264,-3.9266,-3.9336,-3.9328,-3.9557,-3.9589,-3.9416,-3.9418,-3.9419,0,-3.8184,-3.8264,-3.8362,-3.8419,-3.8468,-3.856,-3.8621,-3.866,-3.8723,-3.8823,-3.8885,-3.8988,-3.9071,-3.9235,-3.9294,-3.9391,-3.9394,-3.9467,-3.9408,-3.9397,-3.9393,-3.9387,-3.9395,-3.9477,-3.9479,-3.948,-3.9482,0,-3.8346,-3.8365,-3.8452,-3.8547,-3.8619,-3.8696,-3.8772,-3.8818,-3.887,-3.894,-3.9044,-3.9109,-3.9239,-3.934,-3.9441,-3.9491,-3.9495,-3.95,-3.9522,-3.9513,-3.9491,-3.9502,-3.9292,-3.9494,-3.9493,-3.9492,-3.9491,-3.9491,-3.8455,-3.8526,-3.8606,-3.8702,-3.8763,-3.8833,-3.8906,-3.8956,-3.9043,-3.9151,-3.917,-3.928,-3.9361,-3.9497,-3.955,-3.9638,-3.9621,-3.9653,-3.966,-3.9667,-3.967,-3.9479,-3.9657,-3.9657,-3.9656,-3.9656,-3.9656,0,-3.8617,-3.8668,-3.8756,-3.8861,-3.8936,-3.8933,-3.9017,-3.9081,-3.9178,-3.9252,-3.9334,-3.9454,-3.9553,-3.9619,-3.9719,-3.9777,-3.9781,-3.9802,-3.9797,-3.9808,-3.9681,-3.9651,-3.9796,-3.9796,-3.9796,-3.9796,-3.9796,-3.9796,-3.8709,-3.8829,-3.8857,-3.9007,-3.9059,-3.9166,-3.9214,-3.9279,-3.9339,-3.9471,-3.9553,-3.9595,-3.9667,-3.9772,-3.9863,-3.988,-3.9916,-3.9937,-3.9953,-3.9832,-3.9817,-3.9803,-3.9776,-3.9944,-3.9945,-4.0073,-4.0074,-4.0075]},{"header":{"parameterUnit":"m.s-1","parameterCategory":1,"la1":30.2991,"la2":30.254,"lo1":-89.0895,"lo2":-89.0444,"dy":0.0017,"dx":0.0017,"nx":28,"ny":28,"refTime":"2024-06-17T09:00:00:Z","depth":0,"parameterNumber":3,"parameterNumberName":"V-component_of_WINDS"},"data":[0,0,0,0,0,0,0,0,0,0,0,0,0,0,0,0,0,0,0,0,0,0,0,0,0,0,0,0,0,0,0,0,0,0,0,0,0,0,0,0,0,0,0,0,0,0,0,0,0,0,0,0,0,0,0,0,0,0,3.2271,3.2272,0,3.2303,3.2304,3.2304,3.2219,3.2216,3.2213,3.2211,3.224,3.2243,3.2246,0,0,0,0,0,0,0,0,0,0,0,0,0,3.2132,3.2135,3.2271,3.2272,3.2272,3.2303,3.2304,3.2304,3.2219,3.2216,3.2213,3.221,3.2239,3.2243,3.2247,0,0,0,0,0,0,0,0,0,0,0,0,0,3.2181,3.2136,3.2271,3.2234,3.223,3.2303,3.2304,3.2304,3.222,3.2216,3.2212,3.2208,3.2238,3.2242,3.2247,3.2357,0,0,3.2262,3.2264,0,0,0,0,0,0,0,0,3.2179,3.2187,3.2239,3.2236,3.2233,3.2253,3.2265,3.2322,3.2221,3.2224,3.2211,3.2206,3.2247,3.2251,3.2266,3.2358,3.2359,3.2263,3.2265,3.2268,3.2269,0,0,0,0,0,0,0,3.2175,3.2185,3.2284,3.2239,3.2236,3.2214,3.2216,3.2276,3.2257,3.2223,3.2217,3.2222,3.2245,3.2261,3.2266,3.236,3.2262,3.2267,3.227,3.2272,3.2542,3.2546,0,0,0,0,0,0,3.2177,3.2182,3.2283,3.2285,3.2196,3.222,3.2222,3.2251,3.2256,3.2254,3.2226,3.2218,3.2255,3.226,3.2267,3.2394,3.2268,3.2272,3.2275,3.2538,3.2543,3.2548,0,0,0,0,0,0,3.2175,3.2187,3.2281,3.2232,3.2242,3.2226,3.2258,3.2253,3.2269,3.2258,3.2254,3.2246,3.2252,3.226,3.2335,3.2393,3.2274,3.2279,3.2533,3.2539,3.2545,3.265,0,0,0,0,0,0,3.2171,3.2187,3.2229,3.2234,3.2245,3.2351,3.2262,3.2257,3.2279,3.2269,3.2276,3.2274,3.2249,3.2328,3.234,3.2398,3.2283,3.2527,3.2536,3.2543,3.2641,3.2659,3.2674,0,0,0,0,0,3.2167,3.2257,3.2232,3.2244,3.2298,3.2354,3.2361,3.2332,3.2284,3.2325,3.2318,3.2273,3.2386,3.2337,3.2349,3.241,3.2524,3.2533,3.2543,3.2633,3.2655,3.2674,0,0,0,0,0,0,3.2258,3.2256,3.2229,3.2323,3.234,3.234,3.2391,3.2357,3.2386,3.2376,3.2338,3.234,3.2422,3.2424,3.2369,3.2515,3.2446,3.2459,3.2511,3.2532,3.2548,3.2545,3.2287,0,0,0,0,0,3.2289,3.2336,3.2332,3.2416,3.2426,3.2408,3.2431,3.2408,3.2423,3.2429,3.2427,3.2442,3.248,3.2506,3.2541,3.2642,3.2641,3.2689,3.2706,3.272,3.273,3.2782,3.2803,3.2579,3.2579,3.2579,0,0,3.2354,3.2359,3.2391,3.2434,3.2444,3.2492,3.2414,3.2468,3.2503,3.2436,3.2507,3.2507,3.2521,3.2609,3.2648,3.2613,3.2793,3.2732,3.2743,3.2746,3.2794,3.2815,3.2834,3.2586,3.2585,3.2583,0,0,3.2496,3.2505,3.2575,3.2588,3.2604,3.2592,3.2609,3.2615,3.2612,3.2683,3.2634,3.2674,3.2742,3.2754,3.2769,3.2917,3.2876,3.2929,3.3015,3.3066,3.3084,3.3099,3.315,3.3169,3.294,3.294,3.2941,0,3.2573,3.2645,3.2616,3.2674,3.2693,3.2638,3.2707,3.272,3.2747,3.2761,3.2722,3.2806,3.2812,3.2901,3.2937,3.2952,3.2969,3.2927,3.3084,3.3099,3.3113,3.3161,3.318,3.2947,3.2946,3.2945,3.2945,0,3.2739,3.279,3.2844,3.2873,3.2899,3.2963,3.2941,3.2972,3.2947,3.2938,3.301,3.3016,3.305,3.307,3.3046,3.3156,3.3134,3.3091,3.302,3.3141,3.3185,3.3204,3.2956,3.2953,3.2951,3.295,0,0,3.2937,3.295,3.297,3.2982,3.2997,3.3034,3.3095,3.313,3.3156,3.3177,3.3226,3.3285,3.3245,3.3262,3.3239,3.3284,3.3399,3.3234,3.3234,3.3263,3.3518,3.3549,3.3571,3.3373,3.3376,3.3379,3.3516,0,3.3075,3.3181,3.3156,3.326,3.3305,3.3254,3.3306,3.332,3.3314,3.3351,3.3344,3.3385,3.333,3.334,3.3383,3.3376,3.3449,3.3366,3.3416,3.3418,3.3412,3.3595,3.3628,3.3757,3.3534,3.3537,3.3539,0,3.3251,3.3279,3.3388,3.3395,3.3413,3.3461,3.3491,3.3528,3.3542,3.3534,3.3555,3.3523,3.3581,3.3513,3.3592,3.3536,3.3555,3.3555,3.356,3.3561,3.3484,3.3599,3.3798,3.3816,3.3566,3.3564,3.3562,0,3.3382,3.3448,3.3521,3.3533,3.3544,3.3578,3.3584,3.3595,3.3618,3.3644,3.3658,3.3691,3.3708,3.3733,3.3711,3.3663,3.3793,3.3723,3.3787,3.3788,3.3814,3.3813,3.4017,3.3831,3.3831,3.3831,3.383,0,3.3538,3.3606,3.358,3.3625,3.3699,3.367,3.3744,3.3743,3.3754,3.3796,3.3754,3.3795,3.3763,3.3801,3.3784,3.3852,3.386,3.3854,3.3848,3.3857,3.3857,3.3867,3.3857,3.3836,3.3835,3.3834,3.3833,0,3.3696,3.3682,3.3758,3.3762,3.3765,3.3819,3.3822,3.3863,3.3854,3.3909,3.392,3.3906,3.3948,3.3929,3.3973,3.3962,3.4048,3.4031,3.4043,3.4038,3.4103,3.4096,3.4318,3.4345,3.4144,3.4146,3.4148,0,3.3795,3.3846,3.3857,3.3883,3.3892,3.3935,3.3958,3.3932,3.3958,3.3979,3.4017,3.4056,3.4085,3.4155,3.4148,3.4181,3.4164,3.4239,3.4168,3.4175,3.4162,3.4159,3.4163,3.4253,3.4255,3.4257,3.4259,0,3.3972,3.3963,3.3999,3.4033,3.4062,3.4087,3.4108,3.4131,3.4106,3.4137,3.418,3.4203,3.4249,3.4287,3.4317,3.4321,3.4285,3.4282,3.4298,3.4306,3.431,3.4306,3.408,3.4276,3.4274,3.4273,3.4272,3.4271,3.4102,3.4145,3.4159,3.42,3.4214,3.4235,3.4273,3.427,3.4306,3.4342,3.4324,3.4374,3.4387,3.4423,3.4433,3.4471,3.444,3.4464,3.447,3.4476,3.4484,3.4306,3.4476,3.4476,3.4475,3.4475,3.4474,0,3.4276,3.4283,3.4321,3.4352,3.4385,3.435,3.4372,3.44,3.4446,3.4461,3.4492,3.4541,3.4579,3.4575,3.4609,3.464,3.4625,3.465,3.4646,3.4648,3.4509,3.4491,3.4662,3.4662,3.4662,3.4662,3.4662,3.4662,3.4369,3.4439,3.4432,3.4508,3.4514,3.4564,3.4579,3.4597,3.461,3.4667,3.4699,3.4697,3.4704,3.4739,3.4771,3.4769,3.4783,3.4814,3.4806,3.4676,3.4657,3.464,3.4622,3.4818,3.4818,3.494,3.4941,3.4942]}]]